Weather in Novokhaysky

Russia / Krasnoyarsk Krai     57°45′13″N   97°25′32″E
temp.,
°C
wind,
m/s
gust,
m/s
humid.,
%
clouds,
%
prec.,
mm/h
press.,
hPa
HPBL,
m
14 april, wed
wed1401:00−2w41091100 0.1 1019661
04:00−2w41094100 0.1 1018915
07:00−2w5108465 0.2 1019834
10:000w51079100 0.1 10181194
13:00+2w6116599 0.8 10161704
16:00+2w51072100 0.6 10141474
19:00−1w3778100 0.8 1014341
22:00−2wsw2691100 0.2 1013238
15 april, thu
thu1501:00−4w129898 0.3 101235
04:00−5wnw27965 0.0 1015152
07:00−3wnw398523 0.0 1018490
10:00+1wnw4760100 0.0 10191671
13:00+2w5855100 0.1 10191816
16:00+2w5861100 0.1 10191522
19:000wsw497594 0.1 1018751
22:000sw51385100 0.0 1015898
16 april, fri
fri1601:000sw71697100 0.6 1012926
04:00+1wsw71796100 0.3 1010925
07:00+2wsw71796100 0.3 1009882
10:00+3sw71690100 0.0 1008941
13:00+4sw71691100 0.0 10061071
16:00+5sw81789100 0.0 10031187
19:00+6sw81984100 0.1 10011418
22:00+6w71492100 0.7 10011378
17 april, sat
sat1701:000wnw499797 2.9 1004713
04:00−3nnw4794100 0.6 1009597
07:00−6nnw4974100 0.9 1013844
10:00−5nw5754100 0.0 10151192
13:00−4n3456100 0.0 10111155
16:00−3nnw4644100 0.0 10181566
19:00−5nnw355599 0.0 10191109
22:00−7n3767100 0.0 1021518
18 april, sun
sun1801:00−9ne3669100 0.0 1023563
04:00−10ene3672100 0.0 1023589
07:00−9e3663100 0.0 1023543
10:00−6e4648100 0.0 1022746
13:00−3e5838100 0.0 10191067
16:00−2e51045100 0.0 10151341
19:00−5nne2359100 0.0 1022128
22:00−5ene51293100 0.7 1012721